Home > Time Zones > World Clock > Weather > France > Lens > Past weeks

Flag for France Weather past 2 weeks in Lens, France

Now
55 °F

Low clouds.


Feels Like: 55 °F
Forecast: 44 / 69 °F
Wind: 2 mph from North

Location: Lille Airport

Current Time: May 23, 2015 at 9:46:55 AM

Latest Report: May 23, 2015 at 9:00 AM


Visibility: 4 mi

Pressure: 30.21 "Hg

Humidity: 94%

Dew point: 54 °F

Location of LensLocation

Historic Weather in Lens — Graph

°F

Lens temperature yesterday

Maximum temperature yesterday: 68 °F (at 5:00 PM)
Minimum temperature yesterday: 46 °F (at 5:30 AM)
Average temperature yesterday: 56 °F

Past Weeks' High & Low Weather Summary

 TemperatureHumidityPressure
High77 °F (May 11, 3:30 PM)100% (May 13, 7:00 AM)30.36 "Hg (May 13, 7:00 AM)
Low41 °F (May 21, 4:30 AM)34% (May 21, 4:30 PM)29.68 "Hg (May 18, 7:30 PM)
Average55 °F72%30.09 "Hg
* Reported May 8 8:00 AM — May 23 8:30 AM, Lens, Weather by CustomWeather, © 2015

Note: Actual official high and low records may vary slightly from our data, if they occured in-between our weather recording intervals... More about our weather records

Advertising

Lens weather history for previous 24 hours

 ConditionsComfort  
Time TempWeatherWind HumidityBarometerVisibility
8:30 AM
Sat, May 23
55 °FFog.2 mph94%30.18 "Hg3 mi
8:00 AM55 °FFog.3 mph94%30.18 "Hg2 mi
7:30 AM54 °FFog.3 mph94%30.18 "Hg2 mi
7:00 AM54 °FFog.2 mph94%30.18 "Hg2 mi
6:30 AM54 °FFog.3 mph94%30.18 "Hg3 mi
6:00 AM54 °FPassing clouds.6 mph94%30.18 "HgN/A
5:30 AM54 °FPassing clouds.6 mph94%30.18 "HgN/A
5:00 AM54 °FPartly cloudy.3 mph94%30.18 "HgN/A
4:30 AM54 °FLow clouds.2 mph94%30.18 "HgN/A
4:00 AM54 °FLow clouds.2 mph88%30.18 "HgN/A
3:30 AM54 °FLow clouds.6 mph88%30.21 "HgN/A
3:00 AM54 °FLow clouds.5 mph88%30.21 "HgN/A
2:30 AM54 °FClear.3 mph88%30.21 "Hg10 mi
2:00 AM54 °FClear.3 mph88%30.24 "Hg10 mi
1:30 AM54 °FClear.2 mph88%30.24 "Hg10 mi
1:00 AM54 °FClear.5 mph88%30.24 "Hg10 mi
12:30 AM54 °FClear.6 mph88%30.24 "Hg10 mi
12:00 AM55 °FClear.7 mph77%30.24 "Hg10 mi
11:30 PM
Fri, May 22
54 °FClear.7 mph82%30.24 "Hg10 mi
11:00 PM54 °FClear.5 mph77%30.24 "Hg10 mi
10:30 PM55 °FSunny.5 mph72%30.21 "Hg10 mi
10:00 PM55 °FSunny.6 mph72%30.24 "Hg10 mi
9:30 PM57 °FSunny.6 mph67%30.21 "Hg10 mi
9:00 PM59 °FSunny.7 mph63%30.24 "Hg10 mi
8:30 PM61 °FSunny.12 mph59%30.24 "Hg10 mi
8:00 PM63 °FSunny.9 mph56%30.24 "Hg10 mi
7:30 PM64 °FPassing clouds.10 mph56%30.21 "HgN/A
7:00 PM64 °FPassing clouds.12 mph56%30.24 "HgN/A
6:30 PM64 °FScattered clouds.13 mph56%30.24 "HgN/A
6:00 PM66 °FScattered clouds.12 mph52%30.24 "HgN/A
5:30 PM66 °FPartly sunny.6 mph52%30.24 "HgN/A
5:00 PM68 °FPartly sunny.9 mph46%30.24 "HgN/A
4:30 PM64 °FPartly sunny.6 mph56%30.24 "HgN/A
4:00 PM66 °FPartly sunny.7 mph52%30.24 "HgN/A
3:30 PM64 °FPartly sunny.7 mph52%30.27 "HgN/A
3:00 PM64 °FPartly sunny.7 mph56%30.27 "HgN/A
2:30 PM64 °FPartly sunny.8 mph56%30.27 "HgN/A
2:00 PM63 °FPartly sunny.7 mph64%30.30 "HgN/A
1:30 PM63 °FBroken clouds.6 mph64%30.30 "HgN/A
1:00 PM61 °FBroken clouds.5 mph63%30.30 "HgN/A
12:30 PM61 °FBroken clouds.5 mph68%30.30 "HgN/A
12:00 PM61 °FBroken clouds.6 mph68%30.33 "HgN/A
11:30 AM59 °FBroken clouds.6 mph72%30.33 "HgN/A
11:00 AM57 °FScattered clouds.5 mph77%30.33 "HgN/A
10:30 AM55 °FPartly sunny.5 mph82%30.33 "HgN/A
10:00 AM52 °FPartly sunny.6 mph88%30.33 "HgN/A
9:30 AM52 °FPartly sunny.5 mph88%30.33 "HgN/A
9:00 AM50 °FPartly sunny.3 mph94%30.33 "Hg5 mi
Weather by CustomWeather, © 2015

See weather overviewHow to use our weather pages